TimeCST,TemperatureF,Dew PointF,Humidity,Sea Level PressureIn,VisibilityMPH,Wind Direction,Wind SpeedMPH,Gust SpeedMPH,PrecipitationIn,Events,Conditions,WindDirDegrees,DateUTC
12:53 AM,42.1,37.0,82,30.09,10.0,Calm,Calm,-,N/A,,Clear,0,2011-12-20 06:53:00
1:53 AM,43.0,37.0,80,30.08,10.0,Calm,Calm,-,N/A,,Clear,0,2011-12-20 07:53:00
2:53 AM,43.0,36.0,76,30.07,10.0,Calm,Calm,-,N/A,,Partly Cloudy,0,2011-12-20 08:53:00
3:53 AM,42.8,37.4,81,30.04,10.0,Calm,Calm,-,N/A,,Overcast,0,2011-12-20 09:53:00
4:53 AM,42.1,37.0,82,30.04,10.0,Calm,Calm,-,N/A,,Overcast,0,2011-12-20 10:53:00
5:53 AM,43.0,39.0,86,30.04,10.0,Calm,Calm,-,0.00,Rain,Light Rain,0,2011-12-20 11:53:00
6:53 AM,44.1,41.0,89,30.00,7.0,ESE,8.1,-,0.09,Rain,Light Rain,120,2011-12-20 12:53:00
7:53 AM,45.0,42.1,90,29.97,9.0,ESE,8.1,-,0.02,,Overcast,110,2011-12-20 13:53:00
8:53 AM,48.0,45.0,89,29.98,8.0,SE,4.6,-,N/A,,Overcast,130,2011-12-20 14:53:00
9:08 AM,48.2,46.4,93,29.99,7.0,Calm,Calm,-,N/A,,Overcast,0,2011-12-20 15:08:00
9:53 AM,50.0,48.0,93,29.94,6.0,SE,9.2,-,0.02,,Overcast,140,2011-12-20 15:53:00
10:01 AM,51.8,48.2,88,29.95,7.0,SSE,4.6,16.1,N/A,,Mostly Cloudy,160,2011-12-20 16:01:00
10:10 AM,51.8,50.0,94,29.95,7.0,SSE,9.2,-,N/A,,Mostly Cloudy,150,2011-12-20 16:10:00
10:53 AM,52.0,50.0,93,29.94,6.0,South,10.4,-,N/A,,Overcast,170,2011-12-20 16:53:00
11:11 AM,53.6,51.8,94,29.93,1.8,SSE,9.2,-,0.00,Rain,Light Rain,160,2011-12-20 17:11:00
11:42 AM,53.6,51.8,94,29.90,3.0,South,8.1,-,0.01,,Overcast,170,2011-12-20 17:42:00
11:53 AM,54.0,52.0,93,29.90,4.0,South,10.4,-,0.02,,Overcast,170,2011-12-20 17:53:00
12:33 PM,53.6,53.6,100,29.88,2.0,South,9.2,-,N/A,,Overcast,170,2011-12-20 18:33:00
12:50 PM,55.4,53.6,94,29.87,3.0,South,9.2,-,N/A,,Overcast,180,2011-12-20 18:50:00
12:53 PM,55.0,53.1,93,29.86,3.0,South,8.1,16.1,N/A,,Overcast,180,2011-12-20 18:53:00
1:01 PM,55.4,53.6,94,29.86,2.0,South,6.9,-,N/A,,Overcast,180,2011-12-20 19:01:00
1:32 PM,55.4,53.6,94,29.84,1.8,South,6.9,-,N/A,,Overcast,180,2011-12-20 19:32:00
1:45 PM,55.4,53.6,94,29.85,2.0,South,6.9,-,N/A,,Overcast,180,2011-12-20 19:45:00
1:53 PM,55.9,54.0,93,29.85,2.5,South,6.9,-,N/A,,Overcast,180,2011-12-20 19:53:00
2:09 PM,55.4,53.6,94,29.85,4.0,South,6.9,-,N/A,,Overcast,190,2011-12-20 20:09:00
2:53 PM,57.0,55.0,93,29.84,8.0,SSW,4.6,-,N/A,,Overcast,200,2011-12-20 20:53:00
3:53 PM,57.9,55.0,90,29.85,9.0,Variable,4.6,-,N/A,,Overcast,0,2011-12-20 21:53:00
4:04 PM,57.2,55.4,94,29.85,10.0,South,5.8,-,N/A,,Overcast,190,2011-12-20 22:04:00
4:53 PM,57.9,55.9,93,29.84,10.0,South,5.8,-,0.03,,Overcast,180,2011-12-20 22:53:00
5:18 PM,57.2,55.4,94,29.83,9.0,South,5.8,-,N/A,,Overcast,180,2011-12-20 23:18:00
5:28 PM,57.2,55.4,94,29.83,9.0,South,5.8,-,N/A,,Overcast,180,2011-12-20 23:28:00
5:53 PM,57.9,57.0,97,29.83,9.0,South,5.8,-,N/A,,Overcast,180,2011-12-20 23:53:00
6:14 PM,57.2,57.2,100,29.83,9.0,South,5.8,-,0.00,,Overcast,170,2011-12-21 00:14:00
6:41 PM,59.0,57.2,94,29.83,8.0,South,9.2,-,0.00,Rain,Light Rain,170,2011-12-21 00:41:00
6:53 PM,59.0,57.0,93,29.82,5.0,South,9.2,-,0.02,Rain,Rain,170,2011-12-21 00:53:00
7:10 PM,59.0,57.2,94,29.81,6.0,SSE,10.4,-,0.02,Rain,Light Rain,160,2011-12-21 01:10:00
7:29 PM,59.0,57.2,94,29.80,8.0,SSE,9.2,-,0.03,Rain,Light Rain,160,2011-12-21 01:29:00
7:46 PM,60.8,57.2,88,29.80,2.5,South,9.2,-,0.13,Rain,Rain,170,2011-12-21 01:46:00
7:53 PM,60.1,57.9,93,29.79,6.0,South,8.1,-,0.14,Rain,Light Rain,170,2011-12-21 01:53:00
8:00 PM,60.8,57.2,88,29.80,6.0,South,9.2,-,0.01,Rain,Light Rain,170,2011-12-21 02:00:00
8:53 PM,60.1,57.9,93,29.77,10.0,SSE,9.2,-,0.04,,Overcast,160,2011-12-21 02:53:00
9:10 PM,60.8,57.2,88,29.77,8.0,SSE,9.2,-,0.00,Rain,Light Rain,160,2011-12-21 03:10:00
9:42 PM,60.8,59.0,94,29.75,9.0,South,10.4,-,N/A,,Overcast,170,2011-12-21 03:42:00
9:53 PM,61.0,59.0,93,29.74,7.0,South,12.7,20.7,0.01,Rain,Light Rain,170,2011-12-21 03:53:00
10:14 PM,62.6,59.0,88,29.74,10.0,South,10.4,-,0.01,,Overcast,180,2011-12-21 04:14:00
10:41 PM,62.6,59.0,88,29.73,10.0,SSW,9.2,17.3,0.01,,Overcast,200,2011-12-21 04:41:00
10:53 PM,62.1,59.0,90,29.73,10.0,SSW,9.2,18.4,0.01,,Overcast,210,2011-12-21 04:53:00
11:15 PM,62.6,59.0,88,29.74,10.0,SW,10.4,-,N/A,,Overcast,220,2011-12-21 05:15:00
11:50 PM,62.6,59.0,88,29.73,10.0,WSW,13.8,-,0.01,,Overcast,240,2011-12-21 05:50:00
11:53 PM,62.1,59.0,90,29.73,10.0,WSW,15.0,20.7,0.01,,Overcast,240,2011-12-21 05:53:00